AirNav   ATP
 
 428 users online  

6G8 Shamrock Field Airport
Brooklyn, Michigan, USA

GOING TO BROOKLYN?


FAA INFORMATION EFFECTIVE 08 NOVEMBER 2018

Location

FAA Identifier: 6G8
Lat/Long: 42-05-42.1480N / 084-14-26.8120W
42-05.702467N / 084-14.446867W
42.0950411 / -84.2407811
(estimated)
Elevation: 995 ft. / 303 m (estimated)
Variation: 05W (1985)
From city: 1 mile SE of BROOKLYN, MI
Time zone: UTC -5 (UTC -4 during Daylight Saving Time)
Zip code: 49230

Airport Operations

Airport use: Open to the public
Activation date: 12/1975
Control tower: no
ARTCC: CLEVELAND CENTER
FSS: LANSING FLIGHT SERVICE STATION
NOTAMs facility: LAN (NOTAM-D service available)
Attendance: MAY-NOV IREG
ARPT CLOSED DEC-APR.
Wind indicator: lighted
Segmented circle: yes
Lights: ACTVT LIRL RY 01/19 - CTAF.
Landing fee: yes, PARKING/OVERNIGHT FEE.

Airport Communications

CTAF: 122.9
WX ASOS at JXN (14 nm NW): PHONE 517-768-7506
WX ASOS at ADG (15 nm SE): 118.375 (517-265-9089)
WX AWOS-3 at JYM (19 nm SW): 121.025 (517-437-5638)

Nearby radio navigation aids

VOR radial/distance  VOR name  Freq  Var
JXNr140/13.8JACKSON VOR/DME109.6005W
LFDr090/23.4LITCHFIELD VOR/DME111.2005W
SVMr240/34.3SALEM VORTAC114.3003W
CRLr278/35.0CARLETON VOR/DME115.7003W
DXOr266/39.5DETROIT VOR/DME113.4006W

 
NDB name  Hdg/Dist  Freq  Var  ID
ADRIAN338/15.327806WADG .- -.. --.
TECUMSEH289/16.223906WTCU - -.-. ..-

Airport Services

Fuel available: 100LL
AVAILABLE WITH PRIOR ARRANGEMENT.
Parking: hangars and tiedowns

Runway Information

Runway 1/19

Dimensions: 2822 x 100 ft. / 860 x 30 m
Surface: turf, in fair condition
Runway edge lights: low intensity
LIRL OUT OF SERVICE INDEFINITELY.
Runway edge markings: 01/19 MKD WITH 3 FT YELLOW CONES; DSPLCD THLD MKD WITH 3 CONES EACH SIDE.
RUNWAY 1  RUNWAY 19
Latitude: 42-05.475167N42-05.929333N
Longitude: 084-14.500500W084-14.393000W
Elevation: 995.0 ft.995.0 ft.
Traffic pattern: rightleft
Displaced threshold: no613 ft.
Obstructions: 57 ft. tree, 804 ft. from runway, 65 ft. left of centerline, 14:1 slope to clear105 ft. pline, marked, 1494 ft. from runway, 14:1 slope to clear
APCH RATIO 20:1 AT DSPLCD THLD.

Airport Ownership and Management from official FAA records

Ownership: Privately-owned
Owner: ELLA ATKINS & DEANO SMITH
9237 WAMPLERS LAKE RD
BROOKLYN, MI 49230
Phone 517-592-6253
Manager: ELLA ATKINS
9237 WAMPLERS LAKE RD
BROOKLYN, MI 49230
Phone (443) 745-2742
443-745-6069 MGR CELL. 517-592-6253 UNATND ARPT PH.

Airport Operational Statistics

Aircraft based on the field: 2
Single engine airplanes: 2
    
Aircraft operations: avg 46/month *
91% transient general aviation
9% local general aviation
* for 12-month period ending 31 December 2014

Additional Remarks

105 FT UNLIGHTED PLINE AND TOWER, 1/4 MILE FM THLD, EXTDD L & R OF CNTRLN RY 19.
DEER ON & INVOF OF ARPT.
ADMIN BLDG ACCESS, 1-2-2-9.

Instrument Procedures

There are no published instrument procedures at 6G8.

Some nearby airports with instrument procedures:

KJXN - Jackson County Airport-Reynolds Field (14 nm NW)
KADG - Lenawee County Airport (15 nm SE)
KJYM - Hillsdale Municipal Airport (19 nm SW)
KARB - Ann Arbor Municipal Airport (23 nm E)
KTEW - Mason Jewett Field Airport (29 nm N)
 
Loc | Ops | Rwys | IFR | FBO | Links
Com | Nav | Svcs | Stats | Notes


 
Area around 6G8 (Shamrock Field Airport)
 
Road maps at: MapQuest Bing Google
 
Aerial photo
WARNING: Photo may not be current or correct
Aerial photo of 6G8 (Shamrock Field Airport)
Credit: M. Coleman - LocalHangar.com

Do you have a better or more recent aerial photo of Shamrock Field Airport that you would like to share? If so, please send us your photo.

 
Sectional chart

 
Airport distance calculator
Flying to Shamrock Field Airport? Find the distance to fly.

From to 6G8

Sunrise and sunset
Times for 16-Nov-2018
 Local
(UTC-5)
 Zulu
(UTC)
Morning civil twilight06:5911:59
Sunrise07:2912:29
Sunset17:1422:14
Evening civil twilight17:4422:44

Current date and time
Zulu (UTC)  16-Nov-2018 08:42:54
Local (UTC-5)  16-Nov-2018 03:42:54
 
METAR
KJXN 
14nm NW 
160756Z AUTO 22010KT 4SM -SN BR OVC008 M01/M01 A2981 RMK AO2 SNB46 CIG 005V011 SLP103 P0000 T10061011
KADG 
15nm SE 
160819Z AUTO 25007KT 6SM BR OVC007 M01/M02 A2984 RMK AO2 UPB03E04FZRAB04E14 CIG 006V010 P0000 I1001 T10061017 TSNO
KJYM 
19nm SW 
160815Z AUTO 22010G14KT 2 1/2SM BR OVC005 00/M02 A2980 RMK AO2
KARB 
24nm E 
734-668-7173
160753Z AUTO 21011KT 6SM BR OVC006 00/M01 A2982 RMK AO2 SLP106 T00001011
TAF
KJXN 
14nm NW 
160829Z 1608/1706 24008KT 4SM HZ OVC008 FM161100 21010KT 4SM -SHSN BR OVC008 TEMPO 1611/1615 2SM -SHSN BR OVC004 FM161600 25012G20KT P6SM VCSH BKN012 FM162100 28012G20KT P6SM OVC025 FM162300 26009KT P6SM BKN025
NOTAMs
Click for the latest NOTAMs
NOTAMs are issued by the DoD/FAA and will open in a separate window not controlled by AirNav.

 

 
 

Would you like to see your business listed on this page?

 If your business provides an interesting product or service to pilots, flight crews, aircraft, or users of the Shamrock Field Airport, you should consider listing it here.  To start the listing process, click on the button below
 
Add a business
 

Other Pages about Shamrock Field Airport

Page from the Michigan Airport Directory (PDF)
 
Update a link
 
Copyright © AirNav, LLC. All rights reserved. Privacy Policy  Contact